Location: Saluda
(35.2377°N, 82.3468°W)
Time: 05:54:46
(UTC+00:00)

Vanguard 2 - Pass Details

Date: 07 October 2022
Orbit: 553 x 2933 km, 32.9° (Epoch: 26 November)

Event Time Altitude Azimuth Distance (km) Brightness Sun altitude
Rises 20:06:04 0° 274° (W) 4,924 12.3 33.0°
Reaches altitude 10° 20:08:50 10° 273° (W) 4,202 12.1 32.5°
Maximum altitude 20:21:11 78° 189° (S) 2,546 10.8 30.4°
Drops below altitude 10° 20:38:52 10° 107° (ESE) 5,757 11.7 27.4°
Sets 20:43:24 0° 107° (ESE) 6,766 12.0 26.6°
